Location: Prairie Dale
(45.6972°N, 104.5033°W)
Time: 21:24:18
(UTC+00:00)

DX 1 - Pass Details

Date: 06 July 2022
Orbit: 616 x 630 km, 98.4° (Epoch: 13 August)

Event Time Altitude Azimuth Distance (km) Brightness Sun altitude
Rises 04:41:50 0° 9° (N) 2,930 ? -14.5°
Reaches altitude 10° 04:44:05 10° 4° (N) 2,016 ? -14.7°
Maximum altitude 04:48:19 50° 289° (WNW) 802 ? -15.1°
Drops below altitude 10° 04:52:31 10° 214° (SW) 1,994 ? -15.5°
Enters shadow 04:53:41 - 211° (SSW) 2,464 ? -15.6°
